Regional Weather Roundup
Issued by NWS Albany, NY

Home | Current Version | Previous Version | Graphics & Text | Print | Product List | Glossary Off
Versions: 1 2 3 4 5 6 7 8 9 10 11 12 13 14 15 16 17 18 19 20 21 22 23 24 25 26 27

000
ASUS41 KALY 290310
RWRALY

NEW YORK STATE HOURLY WEATHER ROUNDUP
NATIONAL WEATHER SERVICE ALBANY NY
1100 PM EDT SAT MAY 28 2016

NOTE: "FAIR" INDICATES FEW OR NO CLOUDS BELOW 12,000 FEET WITH NO
SIGNIFICANT WEATHER AND/OR NO OBSTRUCTIONS TO VISIBILITY.

NYZ032-033-038>043-046>054-057>066-NYZ062>081-082-084-290400-
EAST


CITY           SKY/WX    TMP DP  RH WIND       PRES   REMARKS
ALBANY         PTCLDY    78  65  63 S6        30.08R
GLENS FALLS    CLEAR     69  66  90 CALM      30.08S
POUGHKEEPSIE   CLEAR     75  68  78 CALM      30.10R
NEWBURGH       CLEAR     75  70  83 W8        30.13S
MONTGOMERY     CLOUDY    72  68  87 CALM      30.11S
WHITE PLAINS   PTCLDY    71  64  78 CALM      30.13S
ISLIP          CLOUDY    72  47  40 SW15G23   30.14R
NEW YORK CITY  PTCLDY    82  68  62 SW13      30.11R
CENTRAL PARK   PTCLDY    80  64  58 MISG      30.14S
$$

NYZ005>009-017-018-044>046-055-056-290400-
CENTRAL


CITY           SKY/WX    TMP DP  RH WIND       PRES   REMARKS
FULTON         CLOUDY    71  67  87 CALM      30.07S
SYRACUSE       CLOUDY    74  66  76 SE3       30.07S
ROME           PTCLDY    69  65  86 SE5       30.10R
ELMIRA         PTCLDY    71  66  84 CALM      30.11S
BINGHAMTON     CLOUDY    76  63  64 SW5       30.15S
MONTICELLO     CLOUDY    68  66  94 CALM      30.18S
$$

NYZ026>034-041>043-087-290400-
NORTH


CITY           SKY/WX    TMP DP  RH WIND       PRES   REMARKS
WATERTOWN      CLEAR     67  63  87 E5        30.07R
FORT DRUM      NOT AVBL
MASSENA        CLEAR     71  60  68 CALM      30.07S
SARANAC LAKE   CLEAR     63  59  87 CALM      30.14S
PLATTSBURGH    PTCLDY    69  62  78 CALM      30.07F
$$

NYZ001>004-010>016-019>021-085-290400-
WEST


CITY           SKY/WX    TMP DP  RH WIND       PRES   REMARKS
NIAGARA FALLS  MOCLDY    76  64  66 S5        30.06S
BUFFALO        MOCLDY    73  67  81 S7        30.08S
DUNKIRK        PTCLDY    78  64  61 S13       30.06F
JAMESTOWN      CLOUDY    70  63  78 E5        30.14F
WELLSVILLE     PTCLDY    67  64  90 CALM      30.20R
ROCHESTER      CLOUDY    76  66  71 SW5       30.08F
PENN YAN       CLOUDY    72  65  78 SW7       30.11F
$$

             KEY
       WCI = WIND CHILL INDEX
       VSB = VISIBILITY
       HX  = HEAT INDEX
$$




USA.gov is the U.S. government's official web portal to all federal, state and local government web resources and services.